Location: Ch�ze
(42.9000°N, 0.0333°W)
Time: 23:39:06
(UTC+00:00)

Cosmos 1627 Rocket - Pass Details

Date: 24 January 2021
Orbit: 951 x 1003 km, 82.9° (Epoch: 24 February)

Event Time Altitude Azimuth Distance (km) Brightness Sun altitude
Rises 18:18:56 0° 174° (S) 3,628 7.6 -14.0°
Reaches altitude 10° 18:21:26 10° 170° (S) 2,692 6.9 -14.4°
Maximum altitude 18:27:28 60° 92° (E) 1,108 4.5 -15.5°
Drops below altitude 10° 18:33:37 10° 15° (NNE) 2,745 6.6 -16.6°
Sets 18:36:12 0° 12° (NNE) 3,705 7.3 -17.1°
